国际通讯卫星 702星 (INTELSAT 702 (IS-702))

导读

INTELSAT 702是国际通信卫星组织(ITSO)旗下的通信卫星,由美国劳拉空间系统公司建造,1994年6月17日发射升空。卫星发射质量3695千克,采用SSL-1300平台,设计寿命15年,配备26个C波段转发器和10个Ku波段转发器,主要为全球提供通信、广播电视传输服务,2016年退役后被移入墓地轨道。

基本信息
目录编号:
23124
目录名称:
INTELSAT 702
国际标识:
1994-034A
轨道中心:
EARTH
卫星名称:
国际通讯卫星 702星
卫星全名:
国际通讯卫星 702星 (INTELSAT 702 (IS-702))
卫星状态:
在轨 (已飞行11683 天)
发射日期:
1994-06-17 UTC
国别 :
(ITSO)
星等 :
--
轨道信息
数据来源 国际轨道数据 AOE轨道数据
星历时间 2026-06-12T13:47:59+0800
14小时前
查看轨道信息
2026-06-12T13:00:00+0800
15小时前
查看轨道信息
半长轴 42543.15km 42543.064km
偏心率 0.0012244 0.0012082
轨道倾角 11.043° 11.042°
近地点辐角 32.739° 31.825°
升交点赤经 44.851° 44.852°
平近点角 153.325° 142.373°
近地点 36112.923km 36113.526km
远地点 36217.103km 36216.328km
周期 1455.473分钟 1455.469分钟
每日圈数 0.989369 0.989372
详细信息
卫星平台:
SSL-1300
平衡模式:
三轴稳定
覆盖范围:
全球
运营商:
国际卫星通信公司
运营商所在国:
美国
制造商(研发单位):
劳拉空间系统公司
制造商所在国:
美国
使用方式:
暂无
卫星简介
从1965年4月至1984年3月,国际通信卫星组织发射了5代、6种不同性能的卫星共计35颗,除6颗卫星因运载火箭和远地点发动机故障而发射失败外,其余29颗卫星均被送到了预定的静止轨道位置。1984年8月前后,国际通信卫星组织利用部署在大西洋、太平洋、印度洋上空的15颗国际通信卫星,为遍布世界各地170多个国家或地区提供电话、电传、电报、电视和数据传输等电信业务;该卫星已退役。
2D轨道图
3D轨道图
轨道高度分析图
轨道倾角分析图
轨道综合分析图
查看轨道综合分析图